| time (UTC) | temp C | wind direction | speed KPH | gust KPH | rain 1hr cm | rain 24hr cm | rain mn cm | humidity % | barometer mb |
| 20260505092710 | 16 | 35 | 0.0 | 1.6 | 0.00 | 0.00 | 0.00 | 99 | 1016.8 |
| 20260505091705 | 16 | 71 | 0.0 | 1.6 | 0.00 | 0.00 | 0.00 | 99 | 1016.8 |
| 20260505090701 | 16 | 0 | 0.0 | 0.0 | 0.00 | 0.00 | 0.00 | 99 | 1016.5 |
| 20260505085656 | 16 | 72 | 0.0 | 3.2 | 0.00 | 0.00 | 0.00 | 99 | 1016.3 |
| 20260505084651 | 16 | 90 | 0.0 | 3.2 | 0.00 | 0.00 | 0.00 | 99 | 1016.4 |
| 20260505083647 | 16 | 82 | 1.6 | 3.2 | 0.00 | 0.00 | 0.00 | 99 | 1016.7 |
| 20260505082645 | 16 | 90 | 0.0 | 0.0 | 0.00 | 0.00 | 0.00 | 99 | 1016.6 |
| 20260505081644 | 16 | 74 | 0.0 | 1.6 | 0.00 | 0.00 | 0.00 | 99 | 1016.5 |
| 20260505080644 | 16 | 90 | 0.0 | 0.0 | 0.00 | 0.00 | 0.00 | 99 | 1016.4 |
| 20260505075642 | 16 | 111 | 0.0 | 0.0 | 0.00 | 0.00 | 0.00 | 98 | 1016.5 |
| 20260505074642 | 16 | 90 | 1.6 | 3.2 | 0.00 | 0.00 | 0.00 | 98 | 1016.5 |
| 20260505073643 | 16 | 81 | 0.0 | 1.6 | 0.00 | 0.00 | 0.00 | 98 | 1016.6 |
| 20260505072641 | 16 | 99 | 0.0 | 0.0 | 0.00 | 0.00 | 0.00 | 97 | 1016.7 |
| 20260505071640 | 16 | 81 | 0.0 | 0.0 | 0.00 | 0.00 | 0.00 | 97 | 1016.7 |
| 20260505070635 | 17 | 60 | 0.0 | 1.6 | 0.00 | 0.00 | 0.00 | 98 | 1016.9 |
| 20260505065633 | 17 | 90 | 0.0 | 0.0 | 0.00 | 0.00 | 0.00 | 96 | 1016.8 |
| 20260505064632 | 17 | 81 | 0.0 | 1.6 | 0.00 | 0.00 | 0.00 | 96 | 1016.9 |
| 20260505063628 | 17 | 90 | 0.0 | 0.0 | 0.00 | 0.00 | 0.00 | 94 | 1017.1 |
| 20260505062626 | 17 | 105 | 1.6 | 3.2 | 0.00 | 0.00 | 0.00 | 94 | 1017.0 |
| 20260505061626 | 17 | 82 | 0.0 | 3.2 | 0.00 | 0.00 | 0.00 | 94 | 1017.4 |
| 20260505060622 | 17 | 90 | 0.0 | 3.2 | 0.00 | 0.00 | 0.00 | 94 | 1017.3 |
| 20260505055619 | 17 | 74 | 1.6 | 1.6 | 0.00 | 0.00 | 0.00 | 95 | 1017.5 |
| 20260505054619 | 17 | 102 | 3.2 | 3.2 | 0.00 | 0.00 | 0.00 | 94 | 1017.5 |
| 20260505053614 | 17 | 90 | 0.0 | 0.0 | 0.00 | 0.00 | 0.00 | 92 | 1017.6 |
| 20260505052613 | 17 | 90 | 0.0 | 0.0 | 0.00 | 0.00 | 0.00 | 92 | 1017.8 |
| 20260505051614 | 18 | 90 | 0.0 | 1.6 | 0.00 | 0.00 | 0.00 | 90 | 1017.9 |
| 20260505050609 | 18 | 99 | 0.0 | 3.2 | 0.00 | 0.00 | 0.00 | 90 | 1017.8 |
| 20260505041606 | 18 | 90 | 0.0 | 4.8 | 0.00 | 0.00 | 0.00 | 86 | 1018.4 |
| 20260505040601 | 18 | 90 | 0.0 | 0.0 | 0.00 | 0.00 | 0.00 | 84 | 1018.6 |
| 20260505035600 | 19 | 114 | 1.6 | 3.2 | 0.00 | 0.00 | 0.00 | 82 | 1018.5 |
| 20260505034559 | 19 | 90 | 0.0 | 3.2 | 0.00 | 0.00 | 0.00 | 81 | 1018.5 |
| 20260505033558 | 20 | 57 | 3.2 | 4.8 | 0.00 | 0.00 | 0.00 | 81 | 1018.7 |
| 20260505032555 | 20 | 82 | 1.6 | 3.2 | 0.00 | 0.00 | 0.00 | 79 | 1018.8 |
| 20260505031554 | 20 | 90 | 0.0 | 4.8 | 0.00 | 0.00 | 0.00 | 79 | 1018.6 |
| 20260505030553 | 20 | 68 | 3.2 | 4.8 | 0.00 | 0.00 | 0.00 | 78 | 1018.8 |
| 20260505025551 | 20 | 209 | 1.6 | 8.0 | 0.00 | 0.00 | 0.00 | 78 | 1018.8 |
| 20260505024547 | 20 | 120 | 3.2 | 8.0 | 0.00 | 0.00 | 0.00 | 77 | 1018.8 |
| 20260505023547 | 21 | 97 | 0.0 | 9.7 | 0.00 | 0.00 | 0.00 | 76 | 1018.5 |
| 20260505022542 | 21 | 18 | 4.8 | 4.8 | 0.00 | 0.00 | 0.00 | 76 | 1018.5 |
| 20260505021541 | 21 | 96 | 4.8 | 6.4 | 0.00 | 0.00 | 0.00 | 76 | 1018.5 |
| 20260505020538 | 21 | 148 | 3.2 | 4.8 | 0.00 | 0.00 | 0.00 | 75 | 1018.4 |
| 20260505015538 | 21 | 102 | 6.4 | 9.7 | 0.00 | 0.00 | 0.00 | 74 | 1018.2 |
| 20260505014537 | 21 | 70 | 4.8 | 8.0 | 0.00 | 0.00 | 0.00 | 74 | 1018.2 |
| 20260505013537 | 21 | 109 | 4.8 | 8.0 | 0.00 | 0.00 | 0.00 | 72 | 1018.0 |
| 20260505012533 | 21 | 94 | 8.0 | 11.3 | 0.00 | 0.00 | 0.00 | 72 | 1017.8 |
| 20260505011531 | 22 | 120 | 3.2 | 11.3 | 0.00 | 0.00 | 0.00 | 71 | 1017.6 |
| 20260505010529 | 22 | 90 | 6.4 | 8.0 | 0.00 | 0.00 | 0.00 | 70 | 1017.6 |
| 20260505005528 | 22 | 106 | 3.2 | 11.3 | 0.00 | 0.00 | 0.00 | 69 | 1017.6 |
| 20260505004523 | 22 | 90 | 1.6 | 9.7 | 0.00 | 0.00 | 0.00 | 68 | 1017.4 |
| 20260505003522 | 22 | 85 | 4.8 | 4.8 | 0.00 | 0.00 | 0.00 | 68 | 1017.1 |
| 20260505002520 | 23 | 121 | 0.0 | 8.0 | 0.00 | 0.00 | 0.00 | 67 | 1017.2 |
| 20260505001517 | 23 | 154 | 1.6 | 11.3 | 0.00 | 0.00 | 0.00 | 65 | 1017.3 |
| 20260505000517 | 23 | 240 | 1.6 | 6.4 | 0.00 | 0.00 | 0.00 | 64 | 1017.0 |
| 20260504235517 | 23 | 115 | 6.4 | 9.7 | 0.00 | 0.00 | 0.00 | 63 | 1016.8 |
| 20260504234516 | 24 | 137 | 6.4 | 12.9 | 0.00 | 0.00 | 0.00 | 63 | 1016.4 |
| 20260504233514 | 25 | 138 | 4.8 | 6.4 | 0.00 | 0.00 | 0.00 | 61 | 1016.7 |
| 20260504232514 | 25 | 85 | 3.2 | 12.9 | 0.00 | 0.00 | 0.00 | 60 | 1016.7 |
| 20260504231514 | 25 | 93 | 4.8 | 9.7 | 0.00 | 0.00 | 0.00 | 58 | 1016.4 |
| 20260504230513 | 25 | 67 | 3.2 | 12.9 | 0.00 | 0.00 | 0.00 | 58 | 1016.2 |
| 20260504225508 | 26 | 166 | 0.0 | 12.9 | 0.00 | 0.00 | 0.00 | 57 | 1016.5 |
| 20260504224508 | 26 | 90 | 9.7 | 11.3 | 0.00 | 0.00 | 0.00 | 56 | 1016.4 |